Terug naar catalogus

SL-12 DEB

ActiefHEO
NORAD 41681·DEBRIS·🇷🇺 Russia

Gelanceerd Oct 26, 2007 vanaf Baikonur Cosmodrome

Loading…

Volgende Passages (komende 24 uur)

TLE

VersSource: Space-Track

Epoch: Sep 11, 2026, 00:03 UTC

1 41681U 07052N   26254.00234495  .00002202  00000-0  77363-3 0  9995
2 41681  64.9459 146.6917 5739788 193.8998 139.1726  4.40159161192728

Volg SL-12 DEB in realtime met AllMySat

Download on the App Store